CZ-6A DEB, 54584

Orbit data source: Space-Track

CZ-6A DEB, 54584 is space debris in SSO originally from a launch on Fri, 11 Nov 2022 UTC launched from the Taiyaun Space Center, China (TSC). Debris objects in space refer to the collection of defunct objects orbiting the Earth. Examples of debris include non-operational satellites, rocket bodies, and fragments generated from explosions, collisions, or faulty payload assembly.

Loading next visibility...
Identifier
54584, 2022-151ML
Orbit
SSO
Country
Flag of CNCN / PRC
Related business
Manufacturer
SAST
Mission
Spacecraft
Bus & Motor
Unknown
Mass
Unknown
Launch date (UTC)
2022-11-11 (4 years ago)
Launch vehicle
Unknown
Launch site
Taiyaun Space Center, China (TSC)
Object type
Payload
Rocket body
Debris
Shape & HBR
Unknown shape, 0.1 m
Radar Cross Section
Medium (>0.1 m² and <1 m²)

Expand to show TLE details & history
Last TLE update: 2 days ago

TLE from 2 days ago
0 CZ-6A DEB
1 54584U 22151ML  26171.43282090  .00001977  00000-0  12775-2 0  9990
2 54584  98.9032 144.6607 0126130  65.0907 296.3306 14.00166307182937
Epoch: 2026-06-20T10:23Z
TLE epoch observation values (Epoch: 2026-06-20T10:23:15.725Z)
Latitude
-0.00003°
Longitude
80.19766°
Altitude
856.35 km
Speed
7.445 km/s
True Right ascension
09h 38m 38s
True Declination
0° 00' 00"
Sunlit
Object was in daylight at epoch
Visualization orbit readout
Latitude
Unknown
Longitude
Unknown
Altitude
Unknown
Speed
Unknown
Apparent Right ascension
Unknown
Apparent Declination
Unknown
Sunlit
N/A
Visualization observer readout
Local Sidereal Time
21:34:57
Azimuth
Unknown
Elevation
Unknown
Doppler factor
Unknown
Orbital elements
Apogee altitude
982.091 km
Perigee altitude
798.735 km
Semi-major axis
7,268.55 km
Eccentricity
0.01261
Inclination
98.9032°
RAAN
144.6607°
Arg. of periapsis
65.0907°
True anomaly
295.0262°
Mean anomaly
296.3306°
Eccentric anomaly
295.6793°
Mean motion
3.50245 °/min
Orbital period
102.79 mins
BSTAR
0.0012775
Loading maneuver chart data...
Computing Atmospheric mass density...
Loading historical data...
Loading historical data...
Loading historical data...
Loading historical data...
Loading historical data...
Loading historical data...
Loading historical data...

Documentation

Showing up to 5 results
|